Location: Northam
(31.6525°S, 116.6655°E)
Time: 00:12:42
(UTC+08:00)

Envisat - Pass Details

Date: 18 May 2021
Orbit: 764 x 766 km, 98.1° (Epoch: 14 June)

Event Time Altitude Azimuth Distance (km) Brightness Sun altitude
Rises 18:26:16 0° 182° (S) 3,264 6.1 -13.5°
Reaches altitude 10° 18:28:52 10° 193° (SSW) 2,330 5.5 -14.1°
Maximum altitude 18:33:10 28° 250° (WSW) 1,428 5.0 -15.0°
Drops below altitude 10° 18:37:27 10° 308° (NW) 2,306 6.5 -15.8°
Sets 18:40:01 0° 319° (NW) 3,224 7.2 -16.4°
